Location: Newark
(47.0847°N, 2.3941°E)
Time: 20:40:16
(UTC+00:00)

ISS - Visible Passes

Search period start: 19 October 2019 00:00
Search period end: 29 October 2019 00:00
Orbit: 411 x 421 km, 51.6° (Epoch: 19 October)

Date Brightness Start Highest point End Pass type
(mag) Time Alt. Az. Time Alt. Az. Time Alt. Az.
23 Oct -0.8 05:36:43 10° S 05:38:50 16° SE 05:40:58 10° E visible
25 Oct -2.2 05:34:56 10° SSW 05:38:02 35° SE 05:41:09 10° ENE visible
26 Oct -1.5 04:46:49 10° SSW 04:49:32 23° SE 04:52:17 10° E visible
27 Oct -1.1 04:00:39 14° SE 04:01:05 15° SE 04:03:03 10° E visible
27 Oct -3.7 05:34:00 10° WSW 05:37:22 79° SSE 05:40:45 10° ENE visible
28 Oct -3.1 04:47:24 30° SSW 04:48:46 52° SSE 04:52:03 10° ENE visible
